Tracking 20370 objects as of 20-Feb-2020
HD Live streaming from Space Station
objects crossing your sky now
Track the group of recently launched Starlink satellites

COSMOS 339

Track COSMOS 339 now!
10-day predictions
COSMOS 339 is classified as:


NORAD ID: 4386
Int'l Code: 1970-036D
Perigee: 1,452.4 km
Apogee: 1,475.6 km
Inclination: 74.0 °
Period: 115.0 minutes
Semi major axis: 7834 km
RCS: 0.7395 m2 (medium)
Launch date: April 25, 1970
Source: Commonwealth of Independent States (former USSR) (CIS)
Launch site: PLESETSK MISSILE AND SPACE COMPLEX (PKMTR)
aabbcc
Your satellite tracking list
Your tracking list is empty




NASA's NSSDC Master Catalog

Two Line Element Set (TLE):
1  4386U 70036D   20050.90157860 -.00000029 +00000-0 -83304-4 0  9995
2  4386 074.0322 339.9027 0014763 033.7308 032.6457 12.51830438276534
Source of the keplerian elements: AFSPC